When you browse on this site, cookies collect data to enhance your experience and personalize the content and advertising you see.
Visit our Privacy Policy to learn more. By continuing to use the site, you agree to this use of cookies and data.
  • In Portugal
  • List of Countries
  • For 7 days
  • Water Temperature
  • Satellite Maps
  • Weather Map
  • Weather Widgets
  • user-avatar
    Login

    Hourly Weather Chwaliszow

    Today, 20 May, Monday

    Time Temperature Precipitation Wind Pressure Humidity
    00:00 +13°C° 0 mm 1 mps 723 mmHg 89%
    01:00 +13°C° 0 mm 1 mps 723 mmHg 89%
    02:00 +13°C° 0 mm 1 mps 723 mmHg 89%
    03:00 +13°C° 0 mm 1 mps 723 mmHg 89%
    04:00 +13°C° 0 mm 1 mps 723 mmHg 89%
    05:00 +12°C° 0.3 mm 0 mps 723 mmHg 89%
    06:00 +13°C° 0.3 mm 0 mps 723 mmHg 88%
    07:00 +14°C° 0.3 mm 0 mps 723 mmHg 88%
    08:00 +14°C° 0.8 mm 0 mps 723 mmHg 89%
    09:00 +14°C° 0.8 mm 0 mps 723 mmHg 90%
    10:00 +14°C° 0.8 mm 0 mps 723 mmHg 91%
    11:00 +16°C° 0.1 mm 1 mps 723 mmHg 85%
    12:00 +19°C° 0.1 mm 1 mps 723 mmHg 79%
    13:00 +19°C° 0.1 mm 2 mps 723 mmHg 73%
    14:00 +20°C° 0.2 mm 3 mps 723 mmHg 72%
    15:00 +20°C° 0.2 mm 3 mps 723 mmHg 71%
    16:00 +20°C° 0.2 mm 3 mps 722 mmHg 70%
    17:00 +19°C° 0.2 mm 3 mps 722 mmHg 76%
    18:00 +18°C° 0.2 mm 2 mps 722 mmHg 81%
    19:00 +17°C° 0.2 mm 2 mps 722 mmHg 86%
    20:00 +15°C° 0 mm 2 mps 722 mmHg 88%
    21:00 +14°C° 0 mm 2 mps 723 mmHg 90%
    22:00 +13°C° 0 mm 2 mps 723 mmHg 93%
    23:00 +13°C° 0 mm 2 mps 723 mmHg 93%

    Tomorrow, 21 May, Tuesday

    Time Temperature Precipitation Wind Pressure Humidity
    00:00 +12°C° 0 mm 2 mps 723 mmHg 93%
    01:00 +12°C° 0 mm 2 mps 723 mmHg 94%
    02:00 +12°C° 0 mm 2 mps 723 mmHg 94%
    03:00 +10°C° 0 mm 2 mps 723 mmHg 94%
    04:00 +10°C° 0 mm 2 mps 723 mmHg 94%
    05:00 +12°C° 0 mm 2 mps 724 mmHg 90%
    06:00 +13°C° 0 mm 2 mps 724 mmHg 87%
    07:00 +15°C° 0 mm 2 mps 724 mmHg 83%
    08:00 +16°C° 0 mm 2 mps 724 mmHg 78%
    09:00 +17°C° 0 mm 2 mps 724 mmHg 72%
    10:00 +20°C° 0 mm 1 mps 725 mmHg 67%
    11:00 +20°C° 0 mm 1 mps 725 mmHg 64%
    12:00 +21°C° 0 mm 1 mps 725 mmHg 61%
    13:00 +22°C° 0 mm 1 mps 725 mmHg 58%
    14:00 +22°C° 0.1 mm 1 mps 724 mmHg 60%
    15:00 +22°C° 0.1 mm 1 mps 724 mmHg 62%
    16:00 +22°C° 0.1 mm 1 mps 724 mmHg 64%
    17:00 +20°C° 0.1 mm 1 mps 724 mmHg 70%
    18:00 +19°C° 0.1 mm 1 mps 724 mmHg 75%
    19:00 +18°C° 0.1 mm 1 mps 724 mmHg 81%
    20:00 +16°C° 0.7 mm 2 mps 724 mmHg 85%
    21:00 +16°C° 0.7 mm 2 mps 724 mmHg 88%
    22:00 +15°C° 0.7 mm 2 mps 724 mmHg 91%
    23:00 +14°C° 1.4 mm 3 mps 724 mmHg 92%

    Day after tomorrow, 22 May, Wednesday

    Time Temperature Precipitation Wind Pressure Humidity
    00:00 +14°C° 1.4 mm 3 mps 724 mmHg 93%
    01:00 +14°C° 1.4 mm 4 mps 724 mmHg 94%
    02:00 +14°C° 0.5 mm 5 mps 724 mmHg 94%
    03:00 +14°C° 0.5 mm 5 mps 724 mmHg 94%
    04:00 +14°C° 0.5 mm 5 mps 724 mmHg 94%
    05:00 +14°C° 0.7 mm 6 mps 725 mmHg 93%
    06:00 +15°C° 0.7 mm 6 mps 725 mmHg 93%
    07:00 +15°C° 0.7 mm 7 mps 725 mmHg 92%
    08:00 +15°C° 0.3 mm 7 mps 725 mmHg 92%
    09:00 +15°C° 0.3 mm 7 mps 726 mmHg 92%
    10:00 +15°C° 0.3 mm 7 mps 726 mmHg 92%
    11:00 +15°C° 0.2 mm 7 mps 726 mmHg 90%
    12:00 +15°C° 0.2 mm 7 mps 726 mmHg 88%
    13:00 +16°C° 0.2 mm 7 mps 727 mmHg 85%
    14:00 +15°C° 0.3 mm 7 mps 727 mmHg 87%
    15:00 +15°C° 0.3 mm 7 mps 727 mmHg 90%
    16:00 +14°C° 0.3 mm 7 mps 727 mmHg 92%
    17:00 +14°C° 0.1 mm 7 mps 727 mmHg 92%
    18:00 +12°C° 0.1 mm 7 mps 728 mmHg 92%
    19:00 +12°C° 0.1 mm 7 mps 728 mmHg 93%
    20:00 +11°C° 0.1 mm 7 mps 728 mmHg 93%
    21:00 +11°C° 0.1 mm 7 mps 729 mmHg 93%
    22:00 +11°C° 0.1 mm 7 mps 729 mmHg 93%
    23:00 +11°C° 0.1 mm 7 mps 729 mmHg 94%

    23 May, Thursday

    Time Temperature Precipitation Wind Pressure Humidity
    00:00 +11°C° 0.1 mm 7 mps 729 mmHg 94%
    01:00 +11°C° 0.1 mm 7 mps 730 mmHg 95%
    02:00 +10°C° 0.1 mm 7 mps 730 mmHg 94%
    03:00 +7°C° 0.1 mm 8 mps 730 mmHg 93%
    04:00 +6°C° 0.1 mm 8 mps 731 mmHg 92%
    05:00 +6°C° 0 mm 8 mps 731 mmHg 90%
    06:00 +6°C° 0 mm 7 mps 732 mmHg 88%
    07:00 +5°C° 0 mm 7 mps 732 mmHg 86%
    08:00 +6°C° 0 mm 7 mps 733 mmHg 83%
    09:00 +7°C° 0 mm 6 mps 733 mmHg 81%
    10:00 +7°C° 0 mm 5 mps 734 mmHg 78%
    11:00 +9°C° 0 mm 5 mps 734 mmHg 73%
    12:00 +11°C° 0 mm 4 mps 734 mmHg 68%
    13:00 +12°C° 0 mm 4 mps 734 mmHg 63%
    14:00 +13°C° 0 mm 4 mps 734 mmHg 61%
    15:00 +15°C° 0 mm 5 mps 733 mmHg 58%
    16:00 +16°C° 0 mm 5 mps 733 mmHg 55%
    17:00 +14°C° 0 mm 4 mps 733 mmHg 61%
    18:00 +13°C° 0 mm 3 mps 733 mmHg 67%
    19:00 +13°C° 0 mm 2 mps 733 mmHg 73%
    20:00 +12°C° 0 mm 2 mps 733 mmHg 75%
    21:00 +10°C° 0 mm 2 mps 733 mmHg 76%
    22:00 +9°C° 0 mm 2 mps 733 mmHg 78%
    23:00 +9°C° 0 mm 2 mps 733 mmHg 80%

    24 May, Friday

    Time Temperature Precipitation Wind Pressure Humidity
    00:00 +8°C° 0 mm 2 mps 733 mmHg 82%
    01:00 +8°C° 0 mm 2 mps 733 mmHg 85%
    02:00 +8°C° 0 mm 1 mps 733 mmHg 86%
    03:00 +8°C° 0 mm 1 mps 733 mmHg 88%
    04:00 +8°C° 0 mm 1 mps 733 mmHg 90%
    05:00 +10°C° 0 mm 1 mps 733 mmHg 84%
    06:00 +12°C° 0 mm 1 mps 733 mmHg 79%
    07:00 +14°C° 0 mm 2 mps 733 mmHg 73%
    08:00 +15°C° 0 mm 2 mps 732 mmHg 67%
    09:00 +16°C° 0 mm 2 mps 732 mmHg 61%
    10:00 +17°C° 0 mm 2 mps 732 mmHg 55%
    11:00 +19°C° 0 mm 1 mps 732 mmHg 54%
    12:00 +20°C° 0 mm 1 mps 731 mmHg 52%
    13:00 +20°C° 0 mm 1 mps 731 mmHg 51%
    14:00 +20°C° 0 mm 1 mps 730 mmHg 54%
    15:00 +20°C° 0 mm 1 mps 730 mmHg 56%
    16:00 +20°C° 0 mm 1 mps 729 mmHg 58%
    17:00 +19°C° 0 mm 1 mps 729 mmHg 64%
    18:00 +18°C° 0 mm 1 mps 729 mmHg 69%
    19:00 +16°C° 0 mm 1 mps 728 mmHg 74%
    20:00 +15°C° 0 mm 1 mps 728 mmHg 76%
    21:00 +14°C° 0 mm 1 mps 728 mmHg 79%
    22:00 +13°C° 0 mm 1 mps 728 mmHg 81%
    23:00 +12°C° 0 mm 1 mps 728 mmHg 83%

    25 May, Saturday

    Time Temperature Precipitation Wind Pressure Humidity
    00:00 +11°C° 0 mm 1 mps 728 mmHg 84%
    01:00 +11°C° 0 mm 1 mps 728 mmHg 86%
    02:00 +11°C° 0 mm 1 mps 728 mmHg 86%
    03:00 +10°C° 0 mm 1 mps 728 mmHg 87%
    04:00 +10°C° 0 mm 1 mps 728 mmHg 87%
    05:00 +12°C° 0 mm 1 mps 728 mmHg 81%
    06:00 +14°C° 0 mm 1 mps 728 mmHg 75%
    07:00 +16°C° 0 mm 1 mps 728 mmHg 69%
    08:00 +18°C° 0.2 mm 1 mps 729 mmHg 67%
    09:00 +19°C° 0.2 mm 1 mps 729 mmHg 65%
    10:00 +19°C° 0.2 mm 2 mps 729 mmHg 63%
    11:00 +20°C° 0.2 mm 2 mps 729 mmHg 61%
    12:00 +21°C° 0.2 mm 1 mps 729 mmHg 60%
    13:00 +22°C° 0.2 mm 1 mps 729 mmHg 58%
    14:00 +21°C° 0.6 mm 2 mps 729 mmHg 63%
    15:00 +20°C° 0.6 mm 2 mps 729 mmHg 67%
    16:00 +20°C° 0.6 mm 2 mps 729 mmHg 71%
    17:00 +19°C° 0.6 mm 2 mps 729 mmHg 77%
    18:00 +18°C° 0.6 mm 2 mps 729 mmHg 82%
    19:00 +16°C° 0.6 mm 2 mps 730 mmHg 87%
    20:00 +15°C° 0 mm 2 mps 730 mmHg 88%
    21:00 +14°C° 0 mm 2 mps 730 mmHg 90%
    22:00 +13°C° 0 mm 2 mps 731 mmHg 92%
    23:00 +13°C° 0 mm 2 mps 731 mmHg 92%
    Show more